Regional Weather Roundup
Issued by NWS Mobile, AL

Home | Current Version | Previous Version | Text Only | Print | Product List | Glossary On
Versions: 1 2 3 4 5 6 7 8 9 10 11 12 13 14 15 16 17 18 19 20 21 22 23 24 25 26 27 28 29 30 31 32 33 34 35 36 37 38 39 40 41 42 43 44 45 46 47 48 49 50
000
ASUS44 KMOB 261410
RWRMOB
REGIONAL WEATHER ROUNDUP
NATIONAL WEATHER SERVICE MOBILE AL
800 AM CST WED NOV 26 2014

NOTE: "FAIR" INDICATES FEW OR NO CLOUDS BELOW 12,000 FEET WITH NO
      SIGNIFICANT WEATHER AND/OR OBSTRUCTIONS TO VISIBILITY.

  * THESE STATIONS ARE PART OF THE UNIVERSITY OF SOUTH ALABAMA
    MESONET AND ARE NOT UNDER NWS OR FAA QUALITY CONTROL.

ALZ061>064-261500-
COASTAL ALABAMA

CITY           SKY/WX    TMP DP  RH WIND       PRES   REMARKS
MOBILE REG APT SUNNY     41  31  67 NW5       30.25R
BROOKLEY FIELD SUNNY     44  30  57 NW7       30.27R
USA CAMPUS*      N/A    N/A N/A N/A CALM      30.27R
DOG RIVER*       N/A    N/A N/A N/A CALM      30.26R


CITY           SKY/WX    TMP DP  RH WIND       PRES   REMARKS
MOUNT VERNON*    N/A    N/A N/A N/A CALM      30.25R
SARALAND*      NOT AVBL
BAY MINETTE*   NOT AVBL
LOXLEY*          N/A    N/A N/A N/A N6        30.24R
ROBERTSDALE*     N/A    N/A N/A N/A N3        30.24R
FAIRHOPE*        N/A    N/A N/A N/A N5        30.24R
ELBERTA*         N/A    N/A N/A N/A NW5       30.23R
FOLEY*           N/A    N/A N/A N/A NW7       30.17R
GRAND BAY*       N/A     41  34  75 CALM      30.24R
DAUPHIN ISLND* NOT AVBL
BON SCOUR NWR* NOT AVBL
GULF SHORES    SUNNY     42  32  67 NW3       30.24R

$$

ALZ051>060-261500-
INTERIOR SOUTHWEST AND SOUTH CENTRAL ALABAMA

CITY           SKY/WX    TMP DP  RH WIND       PRES   REMARKS
GREENVILLE     SUNNY     42  29  59 N6        30.18R
EVERGREEN      SUNNY     42  31  64 N5        30.22R
CASTLEBERRY*   NOT AVBL
ATMORE*          N/A    N/A N/A N/A NW6       30.24R
DIXIE*           N/A    N/A N/A N/A VRB2      30.17R
ANDALUSIA/OPP  SUNNY     46  31  55 N7        30.20R
ANDALUSIA*       N/A    N/A N/A N/A NW5       30.19R
FLORALA APT    SUNNY     43  32  65 VRB5      30.21R
FLORALA*         N/A    N/A N/A N/A NW7       30.17R

$$

FLZ001>006-261500-
WESTERN FLORIDA PANHANDLE

CITY           SKY/WX    TMP DP  RH WIND       PRES   REMARKS
PENSACOLA      SUNNY     44  30  57 NW9       30.23R
NAS PENSACOLA  SUNNY     44  32  62 N12       30.23R
MILTON         MOSUNNY   43  29  57 NW7       30.22R
WHTNG S FIELD  MOSUNNY   45  32  60 NW6       30.23R


CITY           SKY/WX    TMP DP  RH WIND       PRES   REMARKS
WALNUT HILL*   NOT AVBL
JAY*             N/A    N/A N/A N/A W6        30.22R
DUKE FIELD     SUNNY     42  32  67 N8        30.20R
CRESTVIEW      SUNNY     44  32  62 N7        30.22R
VALPARAISO     MOSUNNY   44  31  60 N10       30.20R
DESTIN         SUNNY     47  33  58 N10       30.21R

$$

MSZ076-079-261500-
INTERIOR SOUTHEAST MISSISSIPPI

CITY           SKY/WX    TMP DP  RH WIND       PRES   REMARKS
LEAKESVILLE*     N/A    N/A N/A N/A CALM      30.25R
AGRICOLA*      NOT AVBL

$$

MARINE OBSERVATIONS

STATION/POSITION TIME  TEMP    WIND        PRES    WAVE
                       AIR SEA DIR/SP/G            HT/PER
                 (UTC) (F)     (DEG/KT/KT) (MB)    (FT/S)
PASCAGOULA       1400   43     330/  4/  6 1024.5R
PETIT BOIS ISLND 1400   47      10/  5/  7 1025.0R
GRAND BAY        1300   39     340/  5     1024.0S
KATRINA CUT      1300   45     360/ 11     1024.4R
CEDAR POINT      1300   40     350/  5     1024.0R
E DAUPHIN ISLAND 1255   44     330/  9/ 11 1023.8R
MIDDLE BAY LIGHT 1300   48     350/ 10     1023.4R
USCG MOBILE BAY  1400   43 59  320/  3/  5 1023.4R
STATE DOCKS      1400   45 57              1023.8R
MEAHER PARK      1300   42     350/  4     1024.4R
WEEKS BAY        1300   37                   N/A
FORT MORGAN      1400   46     360/  6/  8 1023.7R
12 S ORANGE BCH  1400   50 67  340/ 14/ 16 1023.6R   2/ 5
PENSACOLA BAY    1400   44 60  350/  6/ 10 1023.9R
64 S DAUPHIN ISL 1310   57 70  340/ 14/ 19 1025.0R   4/ 6
67 S FORT MORGAN 1300   58     340/ 17     1023.7R

$$

SELECTED LOCATIONS ACROSS THE REGION

CITY           SKY/WX    TMP DP  RH WIND       PRES   REMARKS
NEW ORLEANS    MOSUNNY   45  39  79 S5        30.28R
GULFPORT       SUNNY     39  33  79 NW3       30.27R
PASCAGOULA AP  SUNNY     41  33  73 NW3       30.26R
PASCAGOULA*      N/A    N/A N/A N/A CALM      30.26R
HATTIESBURG    SUNNY     36  32  85 CALM      30.27R
LAUREL         SUNNY     36  30  80 CALM      30.25R
MERIDIAN       SUNNY     32  30  92 S5        30.24R WCI  27
JACKSON        SUNNY     36  32  85 S3        30.22R
MONTGOMERY     SUNNY     42  32  67 W6        30.20R
TROY           SUNNY     42  31  64 NW8       30.18R
KINSTON*       NOT AVBL
GENEVA*          N/A     45  36  70 NW7       30.22R
ASHFORD*         N/A    N/A N/A N/A NW5       30.19R
DOTHAN         SUNNY     43  36  76 NW10      30.20R
PANAMA CITY    SUNNY     45  35  68 NW9       30.19R

$$




USA.gov is the U.S. government's official web portal to all federal, state and local government web resources and services.